{"data":{"norad_id":59315,"epoch":"2026-05-25T00:51:09.075744Z","epoch_age_seconds":72217,"freshness":"FRESH","line1":"1 59315U 24056V   26145.03552171 -.00003709  00000+0 -12542-3 0  9999","line2":"2 59315  43.0080 159.2718 0003466 270.7748  89.2706 15.27535929122833","mean_motion":15.27535929,"eccentricity":0.0003466,"inclination_deg":43.008,"raan_deg":159.2718,"arg_perigee_deg":270.7748,"mean_anomaly_deg":89.2706,"bstar":-0.00012542,"rev_number":12283,"period_min":94.269468407378,"perigee_km":480.8029308,"apogee_km":485.55919648172,"semimajor_km":6861.3180636409,"source":"CELESTRAK","updated_at":"2026-05-25T13:38:18.901489Z"}}